Flag for Switzerland Weather past 2 weeks in Bellinzona, Ticino, Switzerland

Now
67 °F

Mild.


Feels Like: 67 °F
Forecast: 58 / 79 °F
Wind: 1 mph from Northeast

Location: Locarno-Magadino

Current Time: Sep 30, 2014 at 6:30:58 PM

Latest Report: Sep 30, 2014 at 5:00 PM


Visibility: N/A

Pressure: 30.28 "Hg

Humidity: 65%

Dew point: 55 °F

Location of BellinzonaLocation

Historic Weather in Bellinzona — Graph

°F

Bellinzona temperature yesterday

Maximum temperature yesterday: 72 °F (at 4:00 PM)
Minimum temperature yesterday: 47 °F (at 7:00 AM)
Average temperature yesterday: 59 °F

Past Weeks' High & Low Weather Summary

 TemperatureHumidityPressure
High79 °F (Sep 22, 3:00 PM)100% (Sep 16, 5:00 AM)30.42 "Hg (Sep 16, 5:00 AM)
Low43 °F (Sep 26, 7:00 AM)15% (Sep 22, 5:00 PM)29.75 "Hg (Sep 22, 6:00 PM)
Average61 °F80%30.11 "Hg
* Reported Sep 15 5:00 PM — Sep 30 5:00 PM, Bellinzona, Weather by CustomWeather, © 2014

Note: Actual official high and low records may vary slightly from our data, if they occured in-between our weather recording intervals... More about our weather records

Advertising

Bellinzona weather history for previous 24 hours

 ConditionsComfort  
Time TempWeatherWind HumidityBarometerVisibility
5:00 PM
Sep 30
67 °FMild.1 mph65%30.28 "HgN/A
4:00 PM67 °FMild.1 mph70%30.29 "HgN/A
3:00 PM66 °FMild.2 mph69%30.30 "HgN/A
2:00 PM64 °FMild.2 mph73%30.31 "HgN/A
1:00 PM67 °FMild.5 mph67%30.32 "HgN/A
12:00 PM66 °FMild.2 mph63%30.31 "HgN/A
11:00 AM64 °FMild.2 mph72%30.32 "HgN/A
10:00 AM61 °FCool.1 mph84%30.34 "HgN/A
9:00 AM57 °FCool.No wind94%30.32 "HgN/A
8:00 AM56 °FCool.2 mph93%30.32 "HgN/A
7:00 AM55 °FCool.1 mph96%30.32 "HgN/A
6:00 AM55 °FCool.2 mph96%30.32 "HgN/A
5:00 AM55 °FCool.No wind98%30.33 "HgN/A
4:00 AM55 °FCool.1 mph97%30.34 "HgN/A
3:00 AM54 °FCool.1 mph98%30.35 "HgN/A
2:00 AM54 °FCool.No wind97%30.36 "HgN/A
1:00 AM54 °FCool.1 mph97%30.36 "HgN/A
12:00 AM54 °FCool.1 mph97%30.36 "HgN/A
11:00 PM
Sep 29
56 °FCool.1 mph97%30.36 "HgN/A
10:00 PM58 °FCool.1 mph96%30.35 "HgN/A
9:00 PM58 °FCool.1 mph95%30.34 "HgN/A
8:00 PM62 °FMild.2 mph84%30.32 "HgN/A
7:00 PM68 °FMild.5 mph68%30.30 "HgN/A
6:00 PM71 °FMild.7 mph59%30.29 "HgN/A
Weather by CustomWeather, © 2014

See weather overviewHow to use our weather pages